Погода в Портарии

Греция     39°23′19″N   22°59′57″E
темп.,
°C
ветер,
м/с
пор.,
м/с
влажн.,
%
обл.,
%
осадки,
мм/ч
давл.,
гПа
погр.,
м
21 января, чт
чт2123:00+5зюз23560 0.0 1028170
02:00+5зюз336550 0.0 1027143
05:00+5зюз3369100 0.0 1026114
08:00+5юз347283 0.0 1026133
11:00+9зюз33700 0.0 1027296
14:00+10зюз23680 0.0 1025462
17:00+9юз23750 0.0 1025190
20:00+8юз34782 0.0 1025105
22 января, пт
пт2223:00+9ююз34761 0.0 102599
02:00+8юз347723 0.0 102593
05:00+8юз347718 0.0 102486
08:00+8юз347755 0.0 102499
11:00+11юз337095 0.0 1023231
14:00+12юз126896 0.0 1021253
17:00+11ююз237387 0.0 1020128
20:00+10юз347384 0.0 102081
23 января, сб
сб2323:00+10юз447828 0.0 102081
02:00+9юз458214 0.0 101989
05:00+9юз34783 0.0 101774
08:00+9ююз448024 0.0 101685
11:00+11ююз457953 0.0 1015240
14:00+12ю467276 0.0 1012295
17:00+12ю597572 0.0 1010428
20:00+11ю8127753 0.0 1009600
24 января, вс
вс2423:00+10ююз5128637 1.9 10091001
02:00+10ююз5108125 2.0 1009738
05:00+10юз612734 0.0 1009813
08:00+9юз7137019 0.0 1010852
11:00+12ююз5126577 0.0 10101485
14:00+12ююз576848 0.1 1009636
17:00+12ю467443 0.1 1009237
20:00+11ю577972 0.1 1010157
25 января, пн
пн2523:00+11ююз6877100 0.0 1008255
02:00+11ю5980100 0.1 1005476
05:00+10ю8158248 0.4 10021111
08:00+10юз10207846 0.6 10021692
11:00+10зюз1421698 0.1 10041700
14:00+12зюз15216114 0.1 10051997
17:00+10зюз11187018 0.0 10061451
20:00+8зюз697513 0.0 1006398